Location: Newark
(48.5156°N, 1.8989°W)
Time: 02:27:48
(UTC+00:00)

Transit 4A - Pass Details

Date: 29 November 2019
Orbit: 870 x 975 km, 66.8° (Epoch: 08 December)

Event Time Altitude Azimuth Distance (km) Brightness Sun altitude
Exits shadow 05:10:59 43° 236° (SW) 1,209 8.1 -23.2°
Drops below altitude 10° 05:16:05 10° 175° (S) 2,509 10.3 -22.3°
Sets 05:18:39 0° 169° (S) 3,442 11.1 -21.9°
